Regional Weather Roundup
Issued by NWS

Home | Current Version | Previous Version | Graphics & Text | Print | Product List | Glossary On
Versions: 1 2 3 4 5 6 7 8 9 10 11 12 13 14 15 16 17 18 19 20 21 22 23 24 25 26 27 28 29 30 31 32 33 34 35 36 37 38 39 40 41 42 43 44 45 46 47 48 49 50
000
ASUS43 KLSX 241359
RWRMO

WEATHER SUMMARY FOR MISSOURI
NATIONAL WEATHER SERVICE SPRINGFIELD MO
900 AM CDT THU JUL 24 2014

NOTE: "FAIR" INDICATES FEW OR NO CLOUDS BELOW 12,000 FEET WITH NO
       SIGNIFICANT WEATHER AND/OR OBSTRUCTIONS TO VISIBILITY.
       CURRENT SKY AND/OR WEATHER CONDITIONS ARE NOT AVAILABLE FOR
       CHILLICOTHE AND FARMINGTON.

MOZ001>031-035>038-043-044-053-054-241500-
...NORTHERN AND WESTERN MISSOURI...

CITY           SKY/WX    TMP DP  RH WIND       PRES   REMARKS
KANSAS CTY INT MOSUNNY   72  59  63 SE10      30.16R
KANSAS C DTWN  SUNNY     74  60  61 E9        30.15R
LEE`S SUMMIT   SUNNY     71  60  68 E8        30.16S
ST JOSEPH      SUNNY     72  60  66 SE8       30.16R
CHILLICOTHE      N/A     71  58  63 SE6       30.17F
KIRKSVILLE     SUNNY     70  61  73 E6        30.18S

$$
MOZ066>068-077>081-088>096-101>105-241500-
...SOUTHWEST MISSOURI...

CITY           SKY/WX    TMP DP  RH WIND       PRES   REMARKS
SPRINGFIELD    SUNNY     73  61  65 SE9       30.15R
JOPLIN         SUNNY     74  66  76 E12       30.12S

$$
MOZ032>034-039>042-045>050-055>058-069>072-241500-
...CENTRAL MISSOURI...

CITY           SKY/WX    TMP DP  RH WIND       PRES   REMARKS
COLUMBIA       SUNNY     69  57  65 E7        30.17S
JEFFERSON CITY SUNNY     69  56  62 SE7       30.16S
ROLLA          SUNNY     69  55  60 NE8       30.16R
SEDALIA        SUNNY     71  60  68 E8        30.17S HAZE
OSAGE BEACH    SUNNY     70  55  60 E7        30.16S

$$
MOZ051-052-059>065-241500-
...EAST CENTRAL MISSOURI...

CITY           SKY/WX    TMP DP  RH WIND       PRES   REMARKS
ST LOUIS INTL  SUNNY     69  54  58 NE9       30.15S
SPIRIT OF STL  SUNNY     70  52  52 N7        30.15R
ST CHARLES     SUNNY     67  55  65 NE10      30.15S

$$
MOZ072>076-082>087-097>100-106>115-241500-
...SOUTH CENTRAL AND SOUTHEAST MISSOURI...

CITY           SKY/WX    TMP DP  RH WIND       PRES   REMARKS
CAPE GIRARDEAU SUNNY     67  54  63 N9        30.10S
FARMINGTON     SUNNY     66  48  52 N7        30.16S
POPLAR BLUFF   SUNNY     70  49  47 N8        30.11R
WEST PLAINS    SUNNY     69  55  60 NE7       30.17R

$$


USA.gov is the U.S. government's official web portal to all federal, state and local government web resources and services.